Printer-friendly version

IAU Minor Planet Center

Minor Planet Center

MPEC 2003-P52 : 2003 PR11

The following Minor Planet Electronic Circular may be linked-to from your own Web pages, but must not otherwise be redistributed electronically.


Read MPEC 2003-P51 Read MPEC 2003-P53


M.P.E.C. 2003-P52                                Issued 2003 Aug. 13, 11:43 UT

     The Minor Planet Electronic Circulars contain information on unusual
         minor planets and routine data on comets.  They are published
   on behalf of Commission 20 of the International Astronomical Union by the
          Minor Planet Center, Smithsonian Astrophysical Observatory,
                          Cambridge, MA 02138, U.S.A.

             Prepared using the Tamkin Foundation Computer Network

                              MPC@CFA.HARVARD.EDU
          URL http://cfa-www.harvard.edu/iau/mpc.html  ISSN 1523-6714

                                   2003 PR11

Observations:
     K03P11R* C2003 08 09.55015 00 08 44.11 +18 18 56.1          20.6        608
     K03P11R  C2003 08 09.56099 00 08 44.67 +18 19 13.4          20.0        608
     K03P11R  C2003 08 09.57156 00 08 45.21 +18 19 30.6          20.1        608
     K03P11R  C2003 08 10.02778 00 09 11.37 +18 31 50.6          19.5 R      J95
     K03P11R  C2003 08 10.05601 00 09 12.95 +18 32 37.1          20.0 R      J95
     K03P11R  C2003 08 13.19571 00 12 05.34 +19 58 58.6          18.8 R      649
     K03P11R  C2003 08 13.20104 00 12 05.54 +19 59 07.1          18.9 R      649
     K03P11R  C2003 08 13.20637 00 12 05.82 +19 59 16.7          19.2 R      649

Observer details:
608 Haleakala-NEAT/MSSS.  Observers S. Pravdo, M. Hicks, K. Lawrence,
    P. Kervin, J. Africano, R. Maeda.  1.2-m reflector + CCD.
649 Powell Observatory, Louisburg.  Observer R. Fredrick.  0.75-m Newtonian
    + CCD.
J95 Great Shefford.  Observer P. Birtwhistle.  0.30-m f/6.3 Schmidt-Cassegrain
    + CCD.

Orbital elements:
2003 PR11
Epoch 2003 Aug. 9.0 TT = JDT 2452860.5                  MPC
M 345.91291              (2000.0)            P               Q
n   0.18769202     Peri.   89.38715     +0.85900165     -0.47829183
a   3.0211492      Node   299.17327     +0.34554866     +0.80484111
e   0.5271780      Incl.   12.07315     +0.37777280     +0.35137973
P   5.25           H   17.6           G   0.15
From 8 observations 2003 Aug. 9-13.

Ephemeris:
2003 PR11                a,e,i = 3.02, 0.53, 12                  q = 1.4285
Date    TT    R. A. (2000) Decl.     Delta      r     Elong.  Phase     V
2003 08 09    00 08.21   +18 04.0    0.810    1.621   125.2    30.7    19.5
2003 08 19    00 16.90   +22 41.7    0.726    1.577   129.6    29.7    19.2
2003 08 29    00 23.55   +27 26.5    0.656    1.537   133.6    28.4    18.9
2003 09 08    00 27.86   +32 05.1    0.599    1.503   137.1    27.2    18.6
2003 09 18    00 29.81   +36 20.5    0.556    1.474   139.8    26.1    18.4
2003 09 28    00 29.78   +39 51.8    0.526    1.452   141.8    25.3    18.2
2003 10 08    00 29.06   +42 20.6    0.507    1.437   142.9    24.8    18.1
2003 10 18    00 29.53   +43 37.3    0.500    1.429   143.3    24.6    18.0
2003 10 28    00 33.12   +43 41.6    0.504    1.429   143.1    24.6    18.0
2003 11 07    00 41.24   +42 44.5    0.519    1.437   142.2    25.0    18.1
2003 11 17    00 54.05   +41 03.5    0.545    1.452   140.5    25.6    18.3
2003 11 27    01 10.88   +38 56.6    0.585    1.474   137.9    26.6    18.5
2003 12 07    01 30.71   +36 42.1    0.637    1.502   134.5    27.9    18.7
2003 12 17    01 52.39   +34 33.3    0.704    1.537   130.4    29.2    19.0
2003 12 27    02 15.07   +32 38.3    0.785    1.577   125.7    30.4    19.4
2004 01 06    02 38.20   +31 01.1    0.880    1.621   120.8    31.4    19.7
2004 01 16    03 01.37   +29 41.7    0.989    1.669   115.6    32.1    20.0
2004 01 26    03 24.39   +28 37.7    1.109    1.721   110.4    32.4    20.4
2004 02 05    03 47.17   +27 46.2    1.241    1.775   105.1    32.4    20.7
2004 02 15    04 09.63   +27 03.5    1.382    1.831    99.9    32.1    21.0
2004 02 25    04 31.77   +26 26.5    1.531    1.889    94.6    31.5    21.2
2004 03 06    04 53.56   +25 52.3    1.688    1.948    89.4    30.6    21.5
2004 03 16    05 14.96   +25 18.5    1.849    2.008    84.1    29.5    21.7
2004 03 26    05 35.99   +24 43.4    2.014    2.069    78.9    28.2    21.9

Timothy B. Spahr             (C) Copyright 2003 MPC           M.P.E.C. 2003-P52

Read MPEC 2003-P51 Read MPEC 2003-P53


Our Web policy. Index to the CBAT/MPC/ICQ pages.


Valid HTML 4.01!